Regional Weather Roundup
Issued by NWS Grand Forks, ND

Home | Current Version | Previous Version | Graphics & Text | Print | Product List | Glossary On
Versions: 1 2 3 4 5 6 7 8 9 10 11 12 13 14 15 16 17 18 19 20 21 22 23 24 25 26 27 28 29 30 31 32 33 34 35 36 37 38 39 40 41 42 43 44 45 46 47 48 49 50
000
ASUS43 KFGF 171010
RWRFGF
PRAIRIE TO PINES  WEATHER ROUNDUP
NATIONAL WEATHER SERVICE EASTERN NORTH DAKOTA/GRAND FORKS ND
400 AM CST SAT FEB 17 2018

 **SATELLITE DATA USED TO AUGMENT SKY COVER AT AUTOMATED STATIONS**
 *****  WEATHER ACROSS EASTERN NORTH DAKOTA  *****

CITY           SKY/WX    TMP DP  RH WIND       PRES   REMARKS
GRAND FORKS    MOCLDY    14  10  84 W5        29.77S WCI   6
GRAND FRKS AFB FLURRIES  18  12  77 W7        29.77S WCI   8
GRAND FRKS NWS   N/A     16  13  89 W3        29.75S
DEVILS LAKE    FAIR      15  11  83 W15       29.76S WCI   0
FARGO          FAIR      19  14  81 S8        29.81R WCI   9
WAHPETON ARPT  FAIR      19  14  79 W7        29.82F WCI  10
$$

 ***** WEATHER ACROSS CENTRAL AND WESTERN NORTH DAKOTA  *****

CITY           SKY/WX    TMP DP  RH WIND       PRES   REMARKS
BISMARCK       FAIR      15  14  95 W5        29.83R WCI   8
MINOT          FAIR      16  10  77 W14       29.80R WCI   2
JAMESTOWN      FAIR      15  12  88 W8        29.78S WCI   4
MINOT AFB      FAIR      14   9  79 NW14        N/A  WCI  -1
GARRISON         N/A     13   9  84 NW15      29.80R WCI  -3
WILLISTON      FAIR      12   7  80 W9        29.87R WCI   0
DICKINSON      CLOUDY    22  20  92 W13       29.78S WCI  10
HETTINGER      FLURRIES  21  19  92 NW8       29.82R WCI  11
$$

 *****  OTHER AIRPORT OBSERVATIONS IN OUR AREA  *****

CITY           SKY/WX    TMP DP  RH WIND       PRES   REMARKS
WALHALLA       FAIR      12  10  92 W8        29.74S WCI   1
GRAFTON AIRPOR FAIR      12  10  92 W10       29.78S WCI  -1
VALLEY CITY AR FAIR      16  16 100 W10       29.79S WCI   3
CANDO          FAIR       7   7 100 W13       29.77S WCI  -9
CAVALIER APRT    N/A     14  10  85 W14       29.74S WCI  -1
GWINNER          N/A     16  12  86 SW9       29.81S WCI   4
SHEYENNE NWR     N/A     17  14  87 W5        29.95S WCI  10
ROLLA          FAIR      12   9  85 NW16      29.71F WCI  -4
 ***** THE ABOVE OBSERVATIONS ARE NON NWS ARE NOT QUALITY
       CONTROLLED AND MAY MIS-REPORT RAIN FOR SNOW...
$$

  *****  WEATHER ACROSS NORTHERN MINNESOTA  *****

CITY           SKY/WX    TMP DP  RH WIND       PRES   REMARKS
FLAG ISLAND    FAIR      10   7  85 W12       29.65S WCI  -4
WARROAD        CLOUDY    14   9  79 W10       29.69S WCI   1
ROSEAU         NOT AVBL
HALLOCK        CLOUDY    10   7  85 W9        29.74S WCI  -2
THF RVR FALLS  FAIR      15  10  80 W13       29.74S WCI   1
BAUDETTE       MOCLDY    15  10  80 W7        29.67R WCI   5
WASKISH        FAIR      16  12  86 SW10      29.70S WCI   3
CROOKSTON      FAIR      12   9  85 W9        29.78S WCI   0
STEPHEN NDAWN    N/A     12   9  85 W7          N/A  WCI   2
GREENBUSH NDAW   N/A     12   7  79 W8          N/A  WCI   1
$$
  *****  WEATHER ACROSS CENTRAL AND WEST MINNESOTA  *****

CITY           SKY/WX    TMP DP  RH WIND       PRES   REMARKS
FOSSTON        FAIR      16  10  79 SW8       29.75F WCI   5
BEMIDJI        CLOUDY    18  15  88 SW8       29.72F WCI   8
PARK RAPIDS    FAIR      16  12  84 SW8       29.74F WCI   5
ELBOW LAKE     FAIR      20  15  82 SW7       29.81F WCI  11
WADENA         FAIR      19  16  86 W6        29.78S WCI  11
DETROIT LAKES  FAIR      21  19  93 W7        29.78S WCI  13
MOORHEAD       FAIR      19  14  79 W7        29.82S WCI  10
FERGUS FALLS   FAIR      18  14  86 SW5       29.81F WCI  11
MORRIS MN      FAIR      21  16  79 NW5       29.80S WCI  15
STAPLES        FAIR      18  12  79 SW5       29.78S WCI  11
$$
  *****  WEATHER ELSEWHERE ACROSS MINNESOTA  *****

CITY           SKY/WX    TMP DP  RH WIND       PRES   REMARKS
DULUTH         MOCLDY    15   8  73 SW15G22   29.74F WCI   0
INTRNTL FALLS  FAIR      19  12  74 W9        29.65F WCI   8
ELY            FAIR      14   7  73 SW9G17    29.69S WCI   2
CLOQUET        MOCLDY    14   7  73 S13       29.77F WCI   0
WHEATON        MOCLDY    27  18  69 W7        29.84F WCI  19
BRAINERD       FAIR      17  11  77 SW10      29.79F WCI   5
HIBBING        MOCLDY    13   7  77 SW6       29.72F WCI   4
ALEXANDRIA     FAIR      19  14  81 W7        29.79F WCI  10
SAINT CLOUD    CLOUDY    17  12  80 S6        29.83F WCI   9
MINNEAPOLIS    CLOUDY    24  14  65 SW10      29.90F WCI  14
$$

  *****  WEATHER ACROSS SOUTH DAKOTA  *****

CITY           SKY/WX    TMP DP  RH WIND       PRES   REMARKS
SIOUX FALLS    LGT SNOW  25  23  92 S8        29.85F FOG     WCI  16
BROOKINGS      CLOUDY    26  22  84 SW5       29.83F WCI  20
WATERTOWN      FAIR      20  18  92 CALM      29.78F
HURON          FAIR      21  19  92 W3        29.83S
SISSETON         N/A     26  20  77 W13       29.80S WCI  15
ABERDEEN       FAIR      18  15  88 W5        29.83F WCI  11
MITCHELL       CLOUDY    28  27  96 S6        29.83F WCI  22
PIERRE         FAIR      18  14  84 W7        29.83S WCI   9
MOBRIDGE       MOCLDY    15  11  83 NW6       29.79F WCI   6
RAPID CITY     MOCLDY    19  12  74 W6        29.82F WCI  11
$$

  *****  SOME WEATHER IN NEARBY STATES *****

CITY           SKY/WX    TMP DP  RH WIND       PRES   REMARKS
GLASGOW MT     FAIR       8   4  83 W12       29.95R WCI  -7
GREAT FALLS MT LGT SNOW  16  13  88 NE6       30.01S FOG     WCI   7
CHEYENNE WY    FAIR      29  11  47 W24G44    29.90R WCI  15
SCOTTSBLUFF NE FAIR      29  18  63 NW10      29.89S WCI  20
OMAHA NE       CLOUDY    30  15  53 S12       29.95F WCI  20
DES MOINES IA  CLOUDY    25  11  55 S9        30.01F WCI  15
DAVENPORT IA   FAIR      18   8  65 S8        30.13F WCI   8
CHICAGO IL     FAIR      17   9  70 S6        30.15F WCI   9
EAU CLAIRE WI  CLOUDY    16   7  67 S8        29.92F WCI   5
LA CROSSE WI   FAIR      19   7  59 S10G21    30.01F WCI   7
$$

  *****  SOME NATIONAL WEATHER *****

CITY           SKY/WX    TMP DP  RH WIND       PRES   REMARKS
LA GUARDIA NY  FAIR      31  16  54 NW14      30.33R WCI  21
RALEIGH NC     CLOUDY    50  41  71 E9        30.24R
ATLANTA GA     FAIR      51  48  89 N5        30.12S
NEW ORLEANS LA CLOUDY    67  67 100 SW6       30.10S FOG
OKLAHOMA CITY  RAIN      36  35  96 S8        29.99F FOG
ALBUQUERQUE NM CLOUDY    40  38  93 CALM      30.16S
SALT LAKE CITY FAIR      33  16  49 E9        30.20R
LOS ANGELES CA FAIR      53  39  59 CALM      30.11S
BOISE ID       FAIR      32  26  78 E7        30.16F
SEATTLE WA     CLOUDY    46  42  86 S13       30.06F
$$

*** WEATHER ACROSS MANITOBA...SASKATCHEWAN AND ONTARIO ***
                ***ONTARIO***

CITY           SKY/WX    TMP DP  RH WIND       PRES   REMARKS
GERALDTON      MOCLDY     5  -2  72 S3        29.64F
THUNDER BAY    CLOUDY    19  14  79 SW12      29.72F WCI   7
SIOUX LOOKOUT  LGT SNOW  16   9  73 SW5       29.53F WCI   9
TORONTO        PTCLDY    19  14  79 S5        30.24S WCI  13
BIG TROUT LK   CLEAR     -4  -8  84 SW7       29.47F WCI -18
PICKLE LAKE    NOT AVBL
DRYDEN         FLURRIES  16  10  79 W15G21    29.54F WCI   1
KENORA         MOCLDY     9   3  78 W9        29.60S WCI  -5
$$
                *** MANITOBA***

CITY           SKY/WX    TMP DP  RH WIND       PRES   REMARKS
BRANDON        PTCLDY     7   1  78 W15       29.73S WCI -11
DAUPHIN        CLEAR      5   1  85 W18       29.73R WCI -15
ISLAND LAKE    FLURRIES  -4  -9  77 W6        29.52F WCI -16
PILOT MOUND      N/A     14  10  85 W8          N/A  WCI   3
THE PAS        CLOUDY     0  -9  65 W15       29.66S WCI -20
THOMPSON       PTCLDY    -9 -18  64 W7        29.56S WCI -24
WINNIPEG       PTCLDY     3  -2  78 W10       29.72S WCI -12
LYNN LAKE      FLURRIES -13 -18  77 W8        29.53F WCI -30
CHURCHILL      CRYSTALS -22 -27  76 NW9       29.48R WCI -42
GILLAM         CLEAR    -15 -22  70 W7        29.52F WCI -31
$$
                ***SASKATCHEWAN***

CITY           SKY/WX    TMP DP  RH WIND       PRES   REMARKS
ESTEVAN        MOCLDY     9   5  85 NW12      29.82R WCI  -6
KINDERSLEY     CLOUDY     5   0  78 W13       29.93R WCI -12
LLOYDMINSTER   MOCLDY     1  -4  78 W15       29.87R WCI -18
PRINCE ALBERT  CLEAR      0  -6  78 NW7       29.84R WCI -13
REGINA         MOCLDY     9   3  78 NW12      29.84R WCI  -6
YORKTON        CLEAR      0  -4  85 W14       29.77R WCI -19
N. BATTLEFORD  CLEAR      5  -4  66 W15       29.89S WCI -13
LA RONGE       FLURRIES   0  -8  71 W8        29.74F WCI -15
SASKATOON      CLEAR      3  -2  78 W14       29.87R WCI -15
SWIFT CURRENT  CLEAR      3   0  85 W14       29.88S WCI -15
$$
NOTE: THESE ARE AUTOMATED STATIONS WITH LIMITED QUALITY CONTROL
      "FAIR" INDICATES FEW OR NO CLOUDS BELOW 12,000 FEET WITH NO
      SIGNIFICANT WEATHER AND/OR OBSTRUCTIONS TO VISIBILITY.
      SKY/WX - SKY CONDITION AND SIGNIFICANT WEATHER.
      TMP - AIR TEMPERATURE.    DP   - DEWPOINT TEMPERATURE.
      RH  - RELATIVE HUMIDITY.  PRES - PRESSURE.
      HX  - HEAT INDEX.         WCI  - WIND CHILL INDEX.
$



USA.gov is the U.S. government's official web portal to all federal, state and local government web resources and services.